TimeMDT,TemperatureF,Dew PointF,Humidity,Sea Level PressureIn,VisibilityMPH,Wind Direction,Wind SpeedMPH,Gust SpeedMPH,PrecipitationIn,Events,Conditions,WindDirDegrees,DateUTC
12:53 AM,57.0,33.1,40,29.85,10.0,SSW,3.5,-,N/A,,Clear,210,2013-06-18 06:53:00
1:53 AM,59.0,30.9,35,29.84,10.0,ESE,3.5,-,N/A,,Clear,110,2013-06-18 07:53:00
2:53 AM,60.1,27.0,28,29.84,10.0,SE,4.6,-,N/A,,Clear,130,2013-06-18 08:53:00
3:53 AM,57.9,26.1,30,29.83,10.0,SSE,4.6,-,N/A,,Clear,150,2013-06-18 09:53:00
4:53 AM,54.0,27.0,35,29.87,10.0,Variable,3.5,-,N/A,,Clear,0,2013-06-18 10:53:00
5:53 AM,57.0,25.0,29,29.87,10.0,South,6.9,-,N/A,,Clear,170,2013-06-18 11:53:00
6:53 AM,57.9,27.0,31,29.88,10.0,Calm,Calm,-,N/A,,Clear,0,2013-06-18 12:53:00
7:53 AM,64.0,30.0,28,29.87,10.0,Calm,Calm,-,N/A,,Clear,0,2013-06-18 13:53:00
8:53 AM,70.0,36.0,29,29.87,10.0,Calm,Calm,-,N/A,,Clear,0,2013-06-18 14:53:00
9:53 AM,79.0,36.0,21,29.83,10.0,ESE,17.3,21.9,N/A,,Clear,110,2013-06-18 15:53:00
10:53 AM,82.9,30.0,15,29.81,10.0,East,8.1,-,N/A,,Clear,90,2013-06-18 16:53:00
11:53 AM,82.0,35.1,18,29.82,10.0,NNW,6.9,-,N/A,,Clear,340,2013-06-18 17:53:00
12:53 PM,86.0,25.0,11,29.79,10.0,Calm,Calm,-,N/A,,Clear,0,2013-06-18 18:53:00
1:53 PM,90.0,23.0,9,29.74,10.0,West,16.1,23.0,N/A,,Clear,270,2013-06-18 19:53:00
2:53 PM,91.9,28.0,10,29.71,10.0,SW,21.9,27.6,N/A,,Clear,230,2013-06-18 20:53:00
3:53 PM,90.0,28.0,11,29.70,10.0,WSW,18.4,29.9,N/A,,Clear,240,2013-06-18 21:53:00
4:53 PM,90.0,25.0,10,29.69,10.0,SW,19.6,27.6,N/A,,Clear,230,2013-06-18 22:53:00
5:53 PM,90.0,14.0,6,29.65,10.0,WSW,20.7,26.5,N/A,,Clear,240,2013-06-18 23:53:00
6:53 PM,88.0,10.0,5,29.67,10.0,SW,18.4,31.1,N/A,,Clear,230,2013-06-19 00:53:00
7:53 PM,84.0,10.9,6,29.67,10.0,SW,11.5,-,N/A,,Clear,220,2013-06-19 01:53:00
8:53 PM,77.0,12.9,9,29.68,10.0,SSW,8.1,-,N/A,,Clear,200,2013-06-19 02:53:00
9:53 PM,75.0,12.0,9,29.68,10.0,South,8.1,-,N/A,,Clear,190,2013-06-19 03:53:00
10:53 PM,68.0,14.0,12,29.70,10.0,SSE,6.9,-,N/A,,Clear,150,2013-06-19 04:53:00
11:53 PM,64.9,16.0,15,29.70,10.0,SE,9.2,-,N/A,,Clear,140,2013-06-19 05:53:00